Weather in Nejvo-Rudyanka

Russia / Sverdlovsk Oblast     57°20′30″N   60°08′36″E
temp.,
°C
wind,
m/s
gust,
m/s
humid.,
%
clouds,
%
prec.,
mm/h
press.,
hPa
HPBL,
m
6 march, sat
sat623:00−11w3119274 0.0 1001385
02:00−13w5139034 0.0 1003451
05:00−15wsw4109423 0.0 1005249
08:00−14wsw4119353 0.0 1006335
11:00−10wsw5108659 0.1 1006822
14:00−8w61277100 0.1 10071749
17:00−9w61077100 0.3 10081246
20:00−14w3109055 0.0 1010318
7 march, sun
sun723:00−17w259527 0.0 101179
02:00−19sw23980 0.0 101226
05:00−20wsw22980 0.0 101223
08:00−21sw22980 0.0 101120
11:00−13wsw238510 0.0 1011377
14:00−10w127898 0.1 1009834
17:00−11w228099 0.2 1007713
20:00−15w2394100 0.1 100722
8 march, mon
mon823:00−18w239583 0.1 100862
02:00−20wsw23970 0.0 100850
05:00−21sw23980 0.0 100836
08:00−20ssw229732 0.0 100755
11:00−13sse379366 0.1 1005346
14:00−8ssw4788100 0.4 1002857
17:00−7ssw4890100 0.7 1001811
20:00−9s3993100 0.1 1000404
9 march, tue
tue923:00−7s3995100 0.8 1000508
02:00−10wsw41090100 0.2 999279
05:00−12sw3988100 0.2 1000216
08:00−13sw3109520 0.0 1001232
11:00−8wsw478658 0.0 1002663
14:00−6w4777100 0.3 10031243
17:00−7wsw478099 0.4 10051082
20:00−12wsw399394 0.1 1007206
10 march, wed
wed1023:00−13wsw4109169 0.1 1009335
02:00−16wsw4119311 0.0 1009267
05:00−17wsw49939 0.0 1010254
08:00−19wsw399515 0.0 1011245
11:00−15w478522 0.0 1012521
14:00−12wnw357829 0.0 1012886
17:00−13wnw468064 0.1 1011904
20:00−20wnw379361 0.0 1013146